Location: Austin
(30.3000°N, 97.7500°W)
Time: 07:58:52
(UTC-05:00)

OAO 2 Rocket - Pass Details

Date: 19 September 2023
Orbit: 674 x 742 km, 35.0° (Epoch: 25 September)

Event Time Altitude Azimuth Distance (km) Brightness Sun altitude
Exits shadow 06:29:43 12° 234° (SW) 1,982 5.1 -11.1°
Maximum altitude 06:34:14 61° 155° (SSE) 757 3.6 -10.2°
Drops below altitude 10° 06:39:04 10° 76° (ENE) 2,101 7.4 -9.1°
Sets 06:41:29 0° 73° (ENE) 3,021 8.6 -8.6°
